Tracking 29493 objects as of 8-Sep-2024
HD Live streaming from Space Station
objects crossing your sky now

METEOR 2-8 DEB

Track METEOR 2-8 DEB now!
10-day predictions


NORAD ID: 36346
Int'l Code: 1982-025AG
Perigee: 813.4 km
Apogee: 823.4 km
Inclination: 82.5 °
Period: 101.1 minutes
Semi major axis: 7189 km
RCS: 0.0065 m2 (small)
Launch date: March 25, 1982
Source: Commonwealth of Independent States (former USSR) (CIS)
Launch site: PLESETSK MISSILE AND SPACE COMPLEX (PKMTR)

Note: This is SATELLITE DEBRIS
Your satellite tracking list
Your tracking list is empty




NASA's NSSDC Master Catalog

Two Line Element Set (TLE):
1 36346U 82025AG  24252.07533467  .00029308  00000-0  12675-1 0  9993
2 36346  82.5399  14.8778 0006957  54.4924 305.6907 14.24168900 42236
Source of the keplerian elements: AFSPC